SCP
0 0 0 0 0 0 0 0 1 1 1 1 1 1 1 2 2 3 4 4 4 4 3 3 4 6 7 5 4 2 2 2 2 2 3 3 2 2 2 1 1 1 1 1
0 0 0 0 0 0 0 1 1 1 1 1 2 2 2 3 4 5 5 5 4 3 3 2 4 7 7 5 4 2 2 2 2 2 2 3 3 2 2 1 1 1 1 1
0 0 0 0 0 0 0 1 2 2 3 3 3 3 3 5 6 6 6 6 4 3 2 2 3 4 5 5 3 2 2 2 2 2 2 2 3 3 2 2 1 1 1 1
0 0 0 0 0 1 1 2 3 4 5 5 5 5 5 6 6 6 6 5 4 3 3 3 2 3 3 3 3 2 2 2 2 2 2 2 2 2 2 2 1 1 1 1
0 0 0 0 1 1 2 3 4 5 6 7 7 7 6 5 5 4 4 4 3 3 3 3 2 2 3 3 3 3 3 3 3 3 2 2 2 2 1 1 1 1 1 1
0 0 0 1 1 1 2 3 4 4 6 7 8 7 6 5 4 4 3 2 2 2 2 2 2 2 2 2 3 3 4 3 3 2 2 1 1 1 1 1 1 1 1 1
0 0 1 1 2 2 2 3 4 4 5 6 7 6 5 4 4 4 3 2 2 2 2 1 1 1 2 2 3 3 3 3 2 2 1 1 1 1 1 1 1 1 1 1
0 1 1 2 3 2 2 3 4 4 5 6 6 5 5 4 4 4 3 2 1 1 1 1 1 1 2 2 2 2 2 2 1 1 1 1 1 1 0 0 0 0 0 0
1 1 2 3 3 2 2 4 4 4 4 6 6 5 4 4 3 3 2 1 1 1 1 1 1 1 1 1 1 1 1 1 1 1 1 1 1 1 0 0 0 0 0 0
1 2 3 3 3 2 3 4 4 4 4 6 6 5 4 3 2 1 1 1 1 1 1 1 1 1 1 1 1 1 1 1 1 1 1 1 1 1 1 0 0 0 0 0
1 2 3 3 3 2 3 3 4 4 5 6 6 4 3 2 1 1 1 1 1 1 0 1 1 1 0 0 0 1 1 1 1 1 1 1 1 1 1 1 0 0 0 0
1 1 2 3 2 2 3 3 3 4 5 6 5 4 3 2 1 1 1 1 1 1 0 0 0 1 0 0 0 0 1 1 1 0 0 1 1 1 1 0 0 0 0 0
1 1 2 2 2 2 2 2 3 3 4 4 4 3 2 2 2 1 1 1 1 1 0 0 0 0 0 0 0 0 0 1 0 0 0 0 0 1 1 0 0 0 0 0
1 1 1 2 2 2 2 2 2 2 2 2 2 2 2 2 2 1 1 1 1 1 0 0 0 0 0 0 0 0 0 0 0 0 0 0 0 1 1 1 0 0 0 0
2 2 2 1 2 2 2 2 2 1 1 1 1 1 1 2 1 1 0 0 1 0 0 0 0 0 0 0 0 0 0 0 0 0 0 0 0 0 0 1 1 0 0 0
3 3 2 1 2 2 2 1 1 1 1 1 1 0 1 1 1 0 0 0 0 0 0 0 0 0 0 0 0 0 0 0 0 0 0 0 0 0 0 0 1 0 0 0
2 2 1 1 1 1 1 1 1 1 0 0 0 0 0 0 0 0 0 0 0 0 0 0 0 0 0 0 0 0 0 0 0 0 0 0 0 0 0 0 0 0 0 0
1 1 1 1 1 1 1 1 1 0 0 0 0 0 0 0 0 0 0 0 0 0 0 0 0 0 0 0 0 0 0 0 0 0 0 0 0 0 0 0 0 0 0 0
1 0 0 0 0 1 1 0 0 0 0 0 0 0 0 0 0 0 0 0 0 0 0 0 0 0 0 0 0 0 0 0 0 0 0 0 0 0 0 0 0 0 0 0
0 1 0 0 0 0 0 0 0 0 0 0 0 0 0 0 0 0 0 0 0 0 0 0 0 0 0 0 0 0 0 0 0 0 0 0 0 0 0 0 0 0 0 0
0 0 0 0 0 0 0 0 0 0 0 0 0 0 0 0 0 0 0 0 0 0 0 0 0 0 0 0 0 0 0 0 0 0 0 0 0 0 0 0 0 0 0 0
0 0 0 0 0 0 0 0 0 0 0 0 0 0 0 0 0 0 0 0 0 0 0 0 0 0 0 0 0 0 0 0 0 0 0 0 0 0 0 0 0 0 0 0
0 0 0 0 0 0 0 0 0 0 0 0 0 0 0 0 0 0 0 0 0 0 0 0 0 0 0 0 0 0 0 0 0 0 0 0 0 0 0 0 0 0 0 0
0 0 0 0 0 0 0 0 0 0 0 0 0 0 0 0 0 0 0 0 0 0 0 0 0 0 0 0 0 0 0 0 0 0 0 0 0 0 0 0 0 0 0 0
0 0 0 0 0 0 0 0 0 0 0 0 0 0 0 0 0 0 0 0 0 0 0 0 0 0 0 0 0 0 0 0 0 0 0 0 0 0 0 0 0 0 0 0
0 0 0 0 0 0 0 0 0 0 0 0 0 0 0 0 0 0 0 0 0 0 0 0 0 0 0 0 0 0 0 0 0 0 0 0 0 0 0 0 0 0 0 0
0 0 0 0 0 0 0 0 0 0 0 0 0 0 0 0 0 0 0 0 0 0 0 0 0 0 0 0 0 0 0 0 0 0 0 0 0 0 0 0 0 0 0 0
Wind_Speed
5 5 4 5 5 6 7 9 9 9 11 12 11 10 9 9 8 9 8 8 7 6 5 5 5 5 4 3 3 4 4 4 3 3 3 3 3 2 2 3 3 2 3 2
1 2 2 2 4 5 6 6 7 8 6 7 7 6 7 9 11 10 8 8 7 7 6 6 5 5 4 3 3 3 4 4 3 3 3 3 3 3 3 3 3 3 3 3
1 1 2 2 4 4 4 6 10 10 8 10 9 8 8 8 9 11 10 8 7 7 5 4 4 5 4 3 3 3 3 3 3 3 3 3 4 4 4 3 4 4 4 4
3 3 3 7 4 3 5 3 5 7 10 14 13 9 6 7 8 9 9 8 7 6 5 4 4 5 5 5 4 4 3 3 3 3 4 4 4 5 4 4 4 4 4 5
4 3 2 4 3 1 5 2 3 11 12 12 12 10 4 4 7 8 8 8 7 6 6 5 5 5 6 5 5 4 4 3 3 4 4 5 5 5 4 4 5 5 5 5
4 4 4 5 5 0 8 3 0 9 14 14 11 7 4 5 9 9 8 8 8 8 8 6 4 5 6 5 5 4 3 3 3 4 5 5 5 5 4 5 6 6 6 5
4 3 4 5 5 2 5 6 4 7 11 11 6 7 9 9 9 9 9 9 8 8 7 5 4 6 6 5 4 3 4 5 5 5 5 6 5 5 6 6 7 7 7 6
4 3 5 4 2 3 5 4 7 7 7 8 11 13 11 10 10 10 9 9 8 8 6 4 5 6 7 5 4 5 6 7 6 5 5 6 7 7 7 7 8 7 7 6
5 5 4 1 3 4 6 9 8 7 8 12 13 12 11 10 9 8 8 8 7 8 7 5 4 6 7 5 5 7 8 7 7 7 6 6 7 7 6 6 6 5 5 5
3 2 3 4 6 6 8 10 9 10 11 12 13 12 11 9 8 8 7 7 7 8 7 6 5 6 6 6 6 8 8 7 7 7 7 7 6 5 5 5 5 5 5 4
3 2 5 6 5 6 9 11 12 12 11 12 13 11 10 8 8 7 7 6 6 7 7 6 5 6 6 5 7 8 8 7 6 6 7 7 7 6 5 3 3 6 4 4
3 4 4 2 2 7 11 11 12 13 11 9 11 10 9 8 7 7 7 6 6 7 7 6 6 6 5 5 6 8 7 6 5 5 5 6 7 8 12 9 11 11 9 7
4 3 4 4 5 7 9 10 10 12 12 10 9 10 10 8 6 7 7 7 7 7 6 6 6 5 5 5 6 6 7 6 5 5 5 5 6 7 7 8 12 12 11 11
4 6 6 4 5 8 11 11 11 12 11 10 10 9 10 9 8 8 7 7 7 7 7 6 6 5 4 5 6 6 6 7 6 5 5 5 5 5 5 6 5 4 6 9
3 4 6 7 9 10 11 12 12 11 11 9 9 9 9 10 9 8 7 7 8 8 7 6 6 4 3 5 6 6 5 5 5 5 5 5 5 5 5 5 5 4 3 4
5 6 8 10 11 11 11 11 11 10 10 9 9 8 9 10 9 8 7 8 9 7 6 5 5 3 4 5 6 5 5 8 7 5 5 5 5 5 5 5 4 4 3 3
7 7 8 10 10 10 10 9 9 10 10 10 10 10 11 11 10 9 8 7 7 7 6 5 4 4 5 5 5 5 5 6 8 6 5 5 5 5 5 5 4 4 3 3
6 7 9 11 11 11 10 10 10 11 10 11 11 11 11 11 10 8 8 8 8 7 5 4 5 5 6 5 5 5 5 5 5 5 5 5 5 5 5 5 5 5 3 4
8 9 10 11 11 11 10 10 10 10 10 10 12 11 11 10 9 9 9 9 8 6 3 4 7 6 6 6 6 5 6 6 5 5 5 7 6 5 5 5 5 4 4 4
10 11 12 12 11 11 11 10 10 10 10 10 12 12 11 10 9 9 9 7 4 3 3 5 6 6 5 6 7 5 6 6 7 6 6 5 5 5 4 5 5 4 4 4
11 12 12 12 11 11 11 11 11 11 10 10 11 11 10 8 8 8 8 6 3 3 5 6 5 4 4 6 8 6 6 6 6 6 6 5 5 5 4 5 4 4 4 3
10 11 11 12 12 11 9 9 11 11 10 10 10 10 10 9 8 7 5 4 4 5 5 4 4 6 7 7 5 6 6 6 6 5 5 5 5 4 4 4 4 3 3 3
9 10 11 11 11 11 10 9 10 10 10 9 9 9 8 6 5 6 4 2 3 6 5 4 6 9 9 6 4 5 5 5 5 5 4 4 4 4 4 4 3 3 3 3
9 10 10 10 10 11 10 8 8 8 9 8 7 8 8 7 4 3 4 6 7 7 4 5 8 9 8 4 4 4 4 4 4 4 4 3 3 3 3 3 3 2 3 4
10 10 10 10 9 8 8 9 9 9 8 7 7 6 5 5 5 4 4 5 7 6 4 5 7 7 5 4 4 4 4 4 4 4 4 3 3 3 3 3 3 3 3 3
9 8 7 7 7 6 6 7 6 6 7 7 5 4 4 4 5 4 4 5 5 5 4 3 4 5 4 4 4 4 4 4 5 4 4 3 3 3 3 3 3 3 3 3
8 7 6 6 5 5 6 6 7 6 6 7 6 4 4 4 4 4 5 4 3 3 3 3 3 3 3 4 4 4 3 3 4 3 3 3 3 3 3 3 3 3 3 3
Wind_Direction
194 201 174 192 199 186 173 177 174 195 183 194 186 177 167 156 152 146 140 139 142 138 127 119 118 116 117 126 123 119 120 134 153 153 148 148 140 132 118 115 121 123 119 121
225 235 190 214 215 202 194 173 160 152 193 191 170 154 145 154 149 144 145 146 139 132 126 122 130 130 126 129 125 118 120 122 124 128 132 140 138 132 122 115 109 103 106 104
212 294 51 274 236 207 194 169 158 174 190 153 148 159 160 154 147 145 144 138 133 130 131 129 134 129 128 125 109 105 117 130 135 137 138 139 134 120 117 116 103 98 93 93
122 88 199 245 259 172 147 157 158 145 146 153 154 150 141 145 140 137 133 127 125 123 123 119 118 112 107 100 100 99 99 108 124 132 134 126 120 117 116 111 109 101 93 91
110 136 260 305 324 109 119 64 111 135 138 136 126 97 78 116 128 132 127 124 121 119 125 121 115 113 107 97 94 90 89 94 107 122 125 119 118 121 120 111 103 98 94 93
115 133 204 245 283 250 99 70 305 141 143 145 133 129 165 142 121 114 111 112 112 109 103 103 108 113 107 102 97 97 99 98 97 110 120 122 123 118 109 104 101 97 86 80
134 158 247 258 289 46 118 198 184 147 146 145 141 144 140 126 116 116 112 110 107 104 102 105 108 110 107 105 105 107 99 93 88 94 104 107 107 106 106 105 101 95 87 72
137 155 241 281 54 137 181 145 116 118 126 115 111 111 114 115 115 114 111 108 107 105 100 95 100 108 108 107 105 98 93 90 84 82 92 98 99 97 99 102 100 92 86 73
172 198 242 245 126 132 124 112 104 109 109 115 115 118 117 115 114 112 110 109 106 108 100 85 85 104 109 104 103 102 97 91 86 79 78 85 95 102 100 97 98 96 90 83
88 40 50 55 78 88 104 110 114 116 115 115 114 116 114 113 112 108 106 107 108 107 103 93 85 92 104 107 103 101 98 93 90 86 79 71 71 80 95 101 106 104 99 92
91 102 60 41 62 96 102 105 108 112 115 118 118 119 122 121 118 114 110 107 109 111 110 104 98 97 100 105 106 102 97 94 90 89 93 84 72 59 70 66 111 120 114 113
187 200 141 165 127 107 113 116 119 117 112 118 124 126 124 122 118 114 111 110 110 109 109 106 103 102 100 101 109 112 107 102 103 103 100 100 99 78 54 68 77 84 93 101
172 158 131 132 99 101 112 117 117 117 121 123 122 124 123 120 113 111 111 112 115 114 111 110 105 101 104 109 112 116 122 122 118 115 112 109 108 108 96 64 62 70 80 86
115 103 93 95 103 106 108 107 105 101 100 107 109 112 116 114 110 111 112 113 112 109 106 105 102 100 108 118 116 117 120 121 122 122 121 115 111 110 112 112 97 62 52 70
65 100 120 116 105 102 107 108 105 103 104 100 102 109 118 118 116 112 110 111 108 102 100 100 98 96 99 112 114 117 121 122 121 118 114 114 114 111 106 104 103 97 75 56
112 104 107 111 112 113 112 114 117 118 117 113 109 111 116 116 112 107 105 109 109 105 102 99 96 94 99 104 106 105 111 122 122 119 117 116 115 113 109 106 104 100 95 94
126 132 128 126 122 121 123 124 126 126 121 119 118 119 117 112 108 104 101 98 99 98 95 94 92 85 86 94 99 101 99 106 110 108 111 118 120 118 117 114 111 104 98 103
133 139 140 135 131 125 121 121 123 122 122 122 120 119 116 116 116 115 110 101 93 83 73 78 82 80 79 83 90 96 99 98 100 103 105 106 113 115 115 118 118 111 97 90
115 122 123 120 122 121 118 117 120 119 121 123 123 118 112 111 110 108 104 98 96 91 69 71 82 83 83 88 96 97 100 99 95 95 99 104 102 100 104 108 109 108 104 95
108 113 116 114 114 118 117 115 113 111 113 118 116 113 111 111 112 110 104 96 96 113 108 91 87 81 83 90 94 97 98 99 100 99 98 101 104 105 107 109 107 105 102 103
115 114 116 116 115 114 116 118 119 118 116 117 118 119 118 116 115 113 109 99 80 90 90 87 86 87 85 93 93 95 97 98 100 103 104 104 102 100 101 105 108 110 108 106
117 117 117 118 117 113 112 115 118 119 117 117 117 118 117 114 110 101 97 114 121 105 96 86 85 89 95 95 92 95 99 102 103 104 105 106 107 108 107 109 112 114 114 115
113 115 115 117 118 116 111 113 117 120 121 123 124 123 121 120 121 120 113 108 112 106 99 92 94 94 96 89 89 97 104 107 109 111 111 110 113 117 117 115 116 120 122 124
112 111 110 111 113 113 115 116 114 114 113 111 114 119 120 115 100 100 118 119 113 106 97 101 100 99 96 90 94 100 106 110 113 115 115 113 114 117 120 121 122 123 128 128
112 111 111 114 114 115 117 117 113 112 110 109 110 111 112 119 125 128 120 117 115 105 99 105 106 103 99 96 99 104 108 112 118 123 121 121 122 123 123 125 130 133 134 134
110 110 110 113 118 120 119 117 117 118 118 115 108 103 102 106 115 117 114 115 113 109 106 101 102 99 96 98 100 105 107 109 109 112 123 126 126 125 124 126 129 133 137 135
103 102 101 100 102 110 114 115 117 118 120 121 118 115 114 114 115 115 112 109 106 104 104 103 100 101 103 102 97 95 99 102 104 108 112 115 119 125 131 127 127 127 126 125